Regional Weather Roundup
Issued by NWS Northern Indiana

Home | Current Version | Previous Version | Text Only | Print | Product List | Glossary Off
Versions: 1 2 3 4 5 6 7 8 9 10 11 12 13 14 15 16 17 18 19 20 21 22 23 24 25 26 27 28 29 30 31 32 33 34 35 36 37 38 39 40 41 42 43 44 45 46 47 48 49 50

000
ASUS43 KIWX 042010
RWRIWX

KIWX WEATHER ROUNDUP
NATIONAL WEATHER SERVICE NORTHERN INDIANA
300 PM EST WED MAR 04 2015

NOTE: "FAIR" INDICATES FEW OR NO CLOUDS BELOW 12,000 FEET WITH NO
SIGNIFICANT WEATHER AND/OR OBSTRUCTIONS TO VISIBILITY.

* THESE STATIONS ARE NOT UNDER NWS QUALITY CONTROL. THEY ALSO MAY NOT
  REPORT WEATHER SUCH AS PRECIPITATION OR FOG.

INZ001>027-042100-
NORTHERN INDIANA

CITY           SKY/WX    TMP DP  RH WIND       PRES   REMARKS
GARY*          CLOUDY    25   7  46 NW12G23   30.14  WCI  14
VALPARAISO     CLOUDY    23  10  57 N12       30.12R WCI  12
LAPORTE*       PTSUNNY   24  13  62 NW15G21   30.12R WCI  11
KNOX*            N/A     23   3  42 N12       30.12R WCI  12
SOUTH BEND     PTSUNNY   23  11  60 NW18      30.10R WCI   9
ELKHART*       PTSUNNY   25   9  50 NW15G21   30.09R WCI  12
GOSHEN         CLOUDY    23  14  68 NW14      30.06S WCI  11
MONTICELLO*    CLOUDY    21  15  78 W10       30.12S WCI  10
WARSAW*        CLOUDY    25  14  63 NW16      30.08R WCI  12
ANGOLA*        PTSUNNY   27  16  63 NW13      30.02R WCI  16
FORT WAYNE     CLOUDY    29  21  72 NW13      30.05R WCI  19
PERU/GRISSOM   CLOUDY    25  20  80 W15       30.07R WCI  13

$$
INZ028>050-042100-
CENTRAL INDIANA

CITY           SKY/WX    TMP DP  RH WIND       PRES   REMARKS
LAFAYETTE      CLOUDY    19  12  74 W16       30.13F WCI   4
KOKOMO*          N/A    N/A N/A N/A MISG        N/A
MUNCIE*        CLOUDY    29  23  78 NW18      30.04R HAZE    WCI  16
INDIANAPOLIS   CLOUDY    25  18  74 NW17      30.07R WCI  12

$$
MIZ043>046-050>051-056>058-064>065-071>073-077>080-042100-
SOUTHWEST LOWER MICHIGAN

CITY           SKY/WX    TMP DP  RH WIND       PRES   REMARKS
BATTLE CREEK   PTSUNNY   25   9  50 W20       30.02R WCI  11
BENTON HARBOR  PTSUNNY   20  11  68 NW12G23   30.12R WCI   8
COLDWATER*     CLOUDY    26  12  56 W20       30.02R WCI  12
HILLSDALE*     CLOUDY    28  15  58 W17G24    29.98R WCI  15
HOLLAND        PTSUNNY   19   7  59 NW13G25   30.10R WCI   6
GRAND RAPIDS   PTSUNNY   21   7  54 W17G28    30.05R WCI   7
KALAMAZOO      MOSUNNY   23   9  55 NW20      30.05R WCI   8
STURGIS*       CLOUDY    25  12  58 W12       30.03S WCI  14
THREE RIVERS*  FAIR      24  12  62 NW17G24   30.06R WCI  10

$$
OHZ001>008-015>018-024>025-042100-
NORTHWEST OHIO

CITY           SKY/WX    TMP DP  RH WIND       PRES   REMARKS
WAUSEON*       FAIR      30  19  64 NW17      30.00R WCI  18
DEFIANCE       CLOUDY    32  20  61 NW15      30.02R WCI  22
FINDLAY        CLOUDY    34  24  67 W15       29.97F WCI  24
TOLEDO EXPRESS CLOUDY    32  20  61 W17G23    29.99R WCI  21
TOLEDO METCALF CLOUDY    34  22  61 W17       29.98F WCI  23
LIMA           CLOUDY    33  24  69 W15       29.98F HAZE    WCI  23

$$
AND FOR LAKE MICHIGAN COASTAL AND OPEN LAKE BUOY OBSERVATIONS

STATION/POSITION TEMP    WIND        PRES    VSBY  WAVE
                 AIR SEA DIR/SP/G                  HT/PER
                 (F)     (DEG/KT/KT) (MB)    (MI)  (FT/S)
CALUMET HARBOR    22     310/  8/ 17 1019.0F
MICHIGAN CITY     22     310/ 15/ 20   N/A
SAINT JOSEPH      20     310/ 14/ 20 1020.7R

$$
&&


USA.gov is the U.S. government's official web portal to all federal, state and local government web resources and services.